[[{"header":{"parameterUnit":"m.s-1","parameterCategory":1,"la1":30.2991,"la2":30.254,"lo1":-89.0895,"lo2":-89.0444,"dy":0.0017,"dx":0.0017,"nx":28,"ny":28,"refTime":"2023-09-14T21:00:00:Z","depth":0,"parameterNumber":2,"parameterNumberName":"U-component_of_WINDS"},"data":[0,0,0,0,0,0,0,0,0,0,0,0,0,0,0,0,0,0,0,0,0,0,0,0,0,0,0,0,0,0,0,0,0,0,0,0,0,0,0,0,0,0,0,0,0,0,0,0,0,0,0,0,0,0,0,0,0,0,-2.3883,-2.3883,0,-2.3854,-2.3854,-2.3854,-2.3769,-2.3767,-2.3765,-2.3764,-2.3737,-2.3738,-2.3739,0,0,0,0,0,0,0,0,0,0,0,0,0,-2.3867,-2.3868,-2.3883,-2.3883,-2.3882,-2.3854,-2.3854,-2.3854,-2.3769,-2.3767,-2.3765,-2.3763,-2.3736,-2.3737,-2.3739,0,0,0,0,0,0,0,0,0,0,0,0,0,-2.386,-2.3868,-2.3883,-2.3837,-2.3832,-2.3855,-2.3854,-2.3854,-2.377,-2.3767,-2.3764,-2.3762,-2.3736,-2.3737,-2.3739,-2.3804,0,0,-2.3743,-2.3744,0,0,0,0,0,0,0,0,-2.3861,-2.3861,-2.3844,-2.384,-2.3835,-2.3812,-2.3838,-2.3837,-2.3771,-2.3794,-2.3763,-2.376,-2.3764,-2.3763,-2.3764,-2.3803,-2.3802,-2.3744,-2.3744,-2.3745,-2.3746,0,0,0,0,0,0,0,-2.3861,-2.3862,-2.3872,-2.3844,-2.3839,-2.3818,-2.3814,-2.3838,-2.3795,-2.3791,-2.3785,-2.3783,-2.3761,-2.3763,-2.3763,-2.3801,-2.3744,-2.3745,-2.3746,-2.3746,-2.3893,-2.3896,0,0,0,0,0,0,-2.3868,-2.3862,-2.3873,-2.3871,-2.3841,-2.3821,-2.3816,-2.3823,-2.3795,-2.3788,-2.3785,-2.3779,-2.3762,-2.3761,-2.3762,-2.3837,-2.3745,-2.3747,-2.3747,-2.389,-2.3894,-2.3897,0,0,0,0,0,0,-2.3868,-2.387,-2.3874,-2.3865,-2.3864,-2.3824,-2.3832,-2.3824,-2.3825,-2.379,-2.3782,-2.3795,-2.3759,-2.3759,-2.3794,-2.3835,-2.3747,-2.3749,-2.3887,-2.3891,-2.3895,-2.3988,0,0,0,0,0,0,-2.3868,-2.387,-2.3894,-2.3866,-2.3865,-2.3907,-2.3834,-2.3825,-2.3827,-2.3819,-2.3796,-2.379,-2.3757,-2.3792,-2.3796,-2.3835,-2.375,-2.3883,-2.3889,-2.3894,-2.3981,-2.3995,-2.4007,0,0,0,0,0,-2.3868,-2.3922,-2.3896,-2.3897,-2.3894,-2.3909,-2.3908,-2.3869,-2.3831,-2.3855,-2.3833,-2.3791,-2.3829,-2.3797,-2.38,-2.384,-2.388,-2.3887,-2.3893,-2.3975,-2.3992,-2.4006,0,0,0,0,0,0,-2.3956,-2.3917,-2.3888,-2.3934,-2.3926,-2.3895,-2.3924,-2.3888,-2.389,-2.3882,-2.3834,-2.3829,-2.3871,-2.3859,-2.3823,-2.3902,-2.3848,-2.3856,-2.3909,-2.3925,-2.3937,-2.394,-2.3751,0,0,0,0,0,-2.3981,-2.3996,-2.3961,-2.4006,-2.4003,-2.3964,-2.3969,-2.394,-2.3929,-2.3925,-2.3905,-2.3897,-2.3907,-2.3915,-2.3922,-2.3978,-2.3973,-2.4008,-2.4021,-2.4031,-2.4039,-2.4068,-2.4084,-2.3919,-2.3919,-2.3919,0,0,-2.4033,-2.4013,-2.4026,-2.4023,-2.4012,-2.403,-2.3962,-2.3983,-2.3996,-2.3928,-2.396,-2.3945,-2.3933,-2.3979,-2.3998,-2.397,-2.4083,-2.404,-2.4049,-2.405,-2.4077,-2.4093,-2.4107,-2.3923,-2.3923,-2.3922,0,0,-2.4136,-2.4122,-2.4158,-2.4149,-2.4134,-2.4108,-2.4117,-2.4091,-2.4079,-2.4109,-2.4059,-2.4074,-2.4093,-2.4086,-2.4086,-2.4187,-2.4149,-2.419,-2.4258,-2.4288,-2.4301,-2.4312,-2.4349,-2.4363,-2.4198,-2.4198,-2.4198,0,-2.4202,-2.4226,-2.4181,-2.4206,-2.4206,-2.4145,-2.4182,-2.4175,-2.4164,-2.4166,-2.4135,-2.4157,-2.4144,-2.4188,-2.4213,-2.4214,-2.4223,-2.4193,-2.4302,-2.4313,-2.4323,-2.4358,-2.4372,-2.4203,-2.4203,-2.4202,-2.4202,0,-2.4308,-2.4326,-2.4356,-2.4346,-2.435,-2.4381,-2.4342,-2.4351,-2.4321,-2.4299,-2.4332,-2.4314,-2.4318,-2.4326,-2.4297,-2.4366,-2.4349,-2.4311,-2.4255,-2.4345,-2.4377,-2.439,-2.4211,-2.4209,-2.4207,-2.4206,0,0,-2.4467,-2.4432,-2.4444,-2.4439,-2.4418,-2.4431,-2.4459,-2.4461,-2.4471,-2.4465,-2.4488,-2.4506,-2.447,-2.4469,-2.4439,-2.4464,-2.4547,-2.4423,-2.4422,-2.4447,-2.4623,-2.4653,-2.4669,-2.4521,-2.4523,-2.4525,-2.4625,0,-2.4565,-2.4611,-2.4571,-2.4624,-2.464,-2.4583,-2.4607,-2.4598,-2.4578,-2.4589,-2.4567,-2.458,-2.4532,-2.4531,-2.4554,-2.4532,-2.4582,-2.4524,-2.4543,-2.4545,-2.4549,-2.4686,-2.4717,-2.4812,-2.4637,-2.4639,-2.464,0,-2.4686,-2.4686,-2.474,-2.4716,-2.4721,-2.4744,-2.4743,-2.4754,-2.4743,-2.4726,-2.4726,-2.4689,-2.4715,-2.466,-2.4697,-2.4659,-2.4664,-2.4655,-2.4658,-2.4659,-2.4599,-2.4692,-2.4841,-2.4856,-2.4659,-2.4658,-2.4656,0,-2.4798,-2.4811,-2.4845,-2.4842,-2.4815,-2.4832,-2.4822,-2.4807,-2.4811,-2.4811,-2.4813,-2.4817,-2.4819,-2.4822,-2.4787,-2.475,-2.4829,-2.4771,-2.4818,-2.4819,-2.4838,-2.4837,-2.4991,-2.484,-2.484,-2.4839,-2.4839,0,-2.4912,-2.4949,-2.4895,-2.4916,-2.4955,-2.491,-2.495,-2.4933,-2.4921,-2.4939,-2.4889,-2.4907,-2.4859,-2.4872,-2.4845,-2.488,-2.4881,-2.487,-2.4863,-2.4875,-2.4877,-2.4879,-2.4872,-2.4843,-2.4842,-2.4841,-2.4841,0,-2.5044,-2.5009,-2.5043,-2.5014,-2.5008,-2.5038,-2.5013,-2.5032,-2.5009,-2.5032,-2.5035,-2.4999,-2.5012,-2.4977,-2.4985,-2.4967,-2.5018,-2.5,-2.5022,-2.5017,-2.5066,-2.5062,-2.5227,-2.5247,-2.5082,-2.5084,-2.5085,0,-2.512,-2.5146,-2.512,-2.5128,-2.512,-2.5133,-2.5137,-2.5094,-2.51,-2.5089,-2.511,-2.5118,-2.5123,-2.5147,-2.5122,-2.5128,-2.511,-2.5167,-2.5111,-2.5123,-2.5112,-2.5112,-2.5115,-2.518,-2.5182,-2.5183,-2.5185,0,-2.5259,-2.524,-2.5247,-2.5249,-2.5255,-2.5254,-2.5249,-2.5259,-2.5213,-2.5222,-2.5235,-2.5239,-2.5246,-2.5256,-2.5257,-2.5247,-2.5209,-2.5203,-2.5214,-2.5227,-2.524,-2.5235,-2.5055,-2.5199,-2.5198,-2.5197,-2.5196,-2.5195,-2.5365,-2.5386,-2.5371,-2.5381,-2.5373,-2.537,-2.5387,-2.5365,-2.5375,-2.5377,-2.5351,-2.5369,-2.5357,-2.5354,-2.5348,-2.5362,-2.5336,-2.5352,-2.5357,-2.5362,-2.537,-2.5237,-2.5362,-2.5362,-2.5361,-2.5361,-2.5361,0,-2.5503,-2.549,-2.5499,-2.5494,-2.5502,-2.5464,-2.5458,-2.5468,-2.5484,-2.5475,-2.5481,-2.5496,-2.5505,-2.5481,-2.5487,-2.5503,-2.5486,-2.5506,-2.5505,-2.5504,-2.5393,-2.5383,-2.552,-2.552,-2.552,-2.552,-2.552,-2.552,-2.5575,-2.5608,-2.5588,-2.5618,-2.5605,-2.5622,-2.5621,-2.5619,-2.5612,-2.5631,-2.5638,-2.5621,-2.5607,-2.5612,-2.5619,-2.5611,-2.5617,-2.5643,-2.563,-2.5527,-2.5512,-2.5497,-2.5487,-2.5645,-2.5645,-2.574,-2.5741,-2.5742]},{"header":{"parameterUnit":"m.s-1","parameterCategory":1,"la1":30.2991,"la2":30.254,"lo1":-89.0895,"lo2":-89.0444,"dy":0.0017,"dx":0.0017,"nx":28,"ny":28,"refTime":"2023-09-14T21:00:00:Z","depth":0,"parameterNumber":3,"parameterNumberName":"V-component_of_WINDS"},"data":[0,0,0,0,0,0,0,0,0,0,0,0,0,0,0,0,0,0,0,0,0,0,0,0,0,0,0,0,0,0,0,0,0,0,0,0,0,0,0,0,0,0,0,0,0,0,0,0,0,0,0,0,0,0,0,0,0,0,-0.4828,-0.4829,0,-0.4917,-0.4918,-0.4919,-0.4945,-0.4945,-0.4944,-0.4944,-0.5035,-0.5038,-0.504,0,0,0,0,0,0,0,0,0,0,0,0,0,-0.4677,-0.468,-0.4828,-0.4829,-0.483,-0.4917,-0.4918,-0.492,-0.4946,-0.4945,-0.4944,-0.4944,-0.5034,-0.5037,-0.5041,0,0,0,0,0,0,0,0,0,0,0,0,0,-0.4752,-0.4681,-0.4828,-0.4853,-0.4857,-0.4917,-0.4918,-0.492,-0.4946,-0.4945,-0.4944,-0.4944,-0.5033,-0.5037,-0.5041,-0.5082,0,0,-0.5054,-0.5056,0,0,0,0,0,0,0,0,-0.4748,-0.4758,-0.4848,-0.4852,-0.4855,-0.492,-0.4899,-0.4974,-0.4946,-0.4912,-0.4944,-0.4943,-0.4997,-0.5004,-0.5022,-0.5086,-0.509,-0.5055,-0.5057,-0.5059,-0.506,0,0,0,0,0,0,0,-0.4743,-0.4754,-0.4863,-0.485,-0.4854,-0.486,-0.487,-0.4913,-0.4957,-0.4915,-0.4917,-0.4927,-0.4999,-0.5018,-0.5025,-0.5091,-0.5054,-0.5058,-0.5061,-0.5063,-0.5192,-0.5193,0,0,0,0,0,0,-0.4733,-0.475,-0.486,-0.4866,-0.4799,-0.4863,-0.4874,-0.49,-0.4957,-0.4965,-0.4928,-0.4928,-0.5011,-0.502,-0.5028,-0.508,-0.5059,-0.5063,-0.5065,-0.5191,-0.5192,-0.5193,0,0,0,0,0,0,-0.473,-0.4743,-0.4857,-0.4808,-0.4823,-0.4867,-0.4895,-0.4902,-0.4921,-0.4967,-0.4974,-0.494,-0.5011,-0.5022,-0.5068,-0.5083,-0.5065,-0.5069,-0.519,-0.5192,-0.5193,-0.5183,0,0,0,0,0,0,-0.4726,-0.4742,-0.4758,-0.4809,-0.4826,-0.4896,-0.4896,-0.4904,-0.4929,-0.493,-0.498,-0.4988,-0.5011,-0.5062,-0.5072,-0.5089,-0.5072,-0.5189,-0.5191,-0.5193,-0.5182,-0.5184,-0.5185,0,0,0,0,0,-0.472,-0.4751,-0.4759,-0.4772,-0.4847,-0.4897,-0.4907,-0.4934,-0.493,-0.4947,-0.4975,-0.4986,-0.5079,-0.5066,-0.5079,-0.5096,-0.5188,-0.5191,-0.5192,-0.5181,-0.5183,-0.5185,0,0,0,0,0,0,-0.4701,-0.4759,-0.4767,-0.4816,-0.4851,-0.4901,-0.4923,-0.4935,-0.4972,-0.4971,-0.5003,-0.5014,-0.5058,-0.5082,-0.5066,-0.5138,-0.5134,-0.5139,-0.5122,-0.5124,-0.5125,-0.5119,-0.5076,0,0,0,0,0,-0.4703,-0.4739,-0.4787,-0.4825,-0.4842,-0.4879,-0.4902,-0.492,-0.4957,-0.4972,-0.5005,-0.504,-0.5078,-0.5102,-0.5139,-0.5185,-0.5196,-0.5203,-0.5205,-0.5206,-0.521,-0.5236,-0.5239,-0.52,-0.52,-0.52,0,0,-0.4707,-0.4742,-0.4763,-0.4822,-0.4852,-0.4888,-0.4892,-0.493,-0.4957,-0.4978,-0.5024,-0.5049,-0.5091,-0.5137,-0.5159,-0.5158,-0.5223,-0.5208,-0.5209,-0.5212,-0.5238,-0.5242,-0.5245,-0.5201,-0.5201,-0.5201,0,0,-0.4732,-0.4762,-0.4798,-0.4827,-0.4872,-0.4896,-0.4904,-0.4952,-0.4969,-0.5016,-0.5033,-0.5064,-0.5128,-0.5158,-0.5181,-0.5216,-0.5227,-0.5227,-0.5235,-0.526,-0.5263,-0.5266,-0.5279,-0.5283,-0.523,-0.523,-0.523,0,-0.4731,-0.4786,-0.4814,-0.4851,-0.4877,-0.4898,-0.4933,-0.496,-0.5014,-0.5031,-0.5029,-0.511,-0.5139,-0.5193,-0.5201,-0.5219,-0.523,-0.5222,-0.5261,-0.5264,-0.5267,-0.528,-0.5284,-0.523,-0.523,-0.523,-0.523,0,-0.4783,-0.4821,-0.4844,-0.4896,-0.4924,-0.496,-0.4993,-0.5017,-0.5032,-0.5056,-0.5103,-0.5139,-0.5184,-0.5198,-0.5212,-0.5253,-0.5251,-0.5254,-0.5251,-0.527,-0.5282,-0.5287,-0.523,-0.523,-0.523,-0.523,0,0,-0.48,-0.4866,-0.4874,-0.4898,-0.4948,-0.4978,-0.5015,-0.5059,-0.5079,-0.5115,-0.5147,-0.52,-0.5203,-0.523,-0.5248,-0.5269,-0.5295,-0.527,-0.5272,-0.5274,-0.5342,-0.534,-0.5345,-0.5302,-0.5303,-0.5304,-0.5339,0,-0.4832,-0.4899,-0.4925,-0.498,-0.5015,-0.5035,-0.5067,-0.51,-0.5124,-0.5157,-0.5182,-0.522,-0.5221,-0.5237,-0.5259,-0.5287,-0.5309,-0.5285,-0.5332,-0.5333,-0.5322,-0.5352,-0.535,-0.5381,-0.5344,-0.5345,-0.5345,0,-0.4878,-0.4915,-0.4974,-0.5019,-0.5035,-0.5064,-0.5106,-0.5137,-0.5175,-0.5191,-0.522,-0.5236,-0.5275,-0.5268,-0.5321,-0.5304,-0.5325,-0.5341,-0.5343,-0.5349,-0.5341,-0.5359,-0.5392,-0.5396,-0.5353,-0.5352,-0.5352,0,-0.4886,-0.495,-0.4993,-0.5013,-0.5067,-0.5086,-0.511,-0.5148,-0.5172,-0.5208,-0.5225,-0.5265,-0.5287,-0.5317,-0.5344,-0.5336,-0.5395,-0.539,-0.5409,-0.5408,-0.5421,-0.542,-0.5458,-0.5433,-0.5433,-0.5433,-0.5433,0,-0.4919,-0.4954,-0.4997,-0.5024,-0.5064,-0.5092,-0.513,-0.5155,-0.5188,-0.5219,-0.5238,-0.5267,-0.53,-0.5333,-0.5354,-0.5395,-0.5405,-0.5418,-0.5424,-0.5417,-0.5416,-0.5432,-0.543,-0.5434,-0.5434,-0.5433,-0.5433,0,-0.4934,-0.4965,-0.5013,-0.506,-0.5073,-0.51,-0.514,-0.5166,-0.519,-0.5229,-0.524,-0.5277,-0.5317,-0.5347,-0.5398,-0.5412,-0.5456,-0.5461,-0.5443,-0.5446,-0.5463,-0.5461,-0.5513,-0.5521,-0.549,-0.549,-0.549,0,-0.4954,-0.4982,-0.5032,-0.5054,-0.5078,-0.5114,-0.5139,-0.5168,-0.5193,-0.5239,-0.5259,-0.53,-0.5335,-0.5397,-0.5428,-0.5468,-0.5474,-0.549,-0.548,-0.5473,-0.5475,-0.5473,-0.5476,-0.5491,-0.5491,-0.5491,-0.5492,0,-0.4987,-0.5,-0.5036,-0.5077,-0.5106,-0.514,-0.5174,-0.5191,-0.5226,-0.5253,-0.5294,-0.5321,-0.5373,-0.5413,-0.5455,-0.5479,-0.5491,-0.5494,-0.5501,-0.5495,-0.5484,-0.549,-0.5447,-0.5493,-0.5493,-0.5493,-0.5493,-0.5493,-0.5005,-0.5031,-0.507,-0.5109,-0.5137,-0.5168,-0.5195,-0.5222,-0.5257,-0.5302,-0.5317,-0.5359,-0.5396,-0.5454,-0.5478,-0.5511,-0.5511,-0.552,-0.5523,-0.5525,-0.5524,-0.5477,-0.5519,-0.5519,-0.5519,-0.5519,-0.5519,0,-0.5039,-0.5065,-0.5101,-0.5147,-0.5178,-0.5187,-0.5224,-0.5249,-0.5286,-0.532,-0.5354,-0.54,-0.5439,-0.5473,-0.5514,-0.5534,-0.554,-0.5544,-0.5543,-0.5548,-0.5522,-0.5513,-0.5538,-0.5538,-0.5538,-0.5538,-0.5538,-0.5538,-0.506,-0.5103,-0.5121,-0.5179,-0.5204,-0.5246,-0.5267,-0.5295,-0.5323,-0.5374,-0.5407,-0.5429,-0.5463,-0.5505,-0.5541,-0.555,-0.5565,-0.5566,-0.5577,-0.5552,-0.555,-0.5548,-0.5539,-0.5569,-0.5569,-0.56,-0.56,-0.5601]}]]